Joplin, MO

1:31 PM CDT on October 19, 2019 (GMT -0500)
Joplin Regional

Weather History for KJLN - August, 2019

Change the Weather History Date:

Friday, August 9, 2019

  Actual Average Record
Temperature  
Mean Temperature 77 °F 81 °F  
Max Temperature 87 °F 92 °F 102 °F (1980)
Min Temperature 67 °F 70 °F 53 °F (1989)
Degree Days  
Heating Degree Days 0 0  
Month to date heating degree days 0 0  
Since 1 June heating degree days 1 5  
Since 1 July heating degree days 0 0  
Cooling Degree Days 12 16  
Month to date cooling degree days 112 144  
Year to date cooling degree days 963 1115  
Since 1 June cooling degree days 810 935  
Growing Degree Days 26 (Base 50)    
Moisture  
Dew Point 70 °F    
Average Humidity 83    
Maximum Humidity 100    
Minimum Humidity 65    
Precipitation  
Precipitation T in 0.11 in 2.94 in (1984)
Month to date precipitation 2.23 0.90  
Year to date precipitation 45.14 28.52  
Sea Level Pressure  
Sea Level Pressure 29.95 in    
Wind  
Wind Speed 1 mph (ENE)    
Max Wind Speed 8 mph    
Max Gust Speed 13 mph    
Visibility 4 miles    
Events Fog    
T = Trace of Precipitation, MM = Missing Value Source: NWS Daily Summary

Daily Weather History Graph

Daily Weather History Graph

Search for Another Location

Airport or City:

Astronomy

Aug. 09, 2019 Rise Set
Actual Time 6:29 AM CDT 8:17 PM CDT
Civil Twilight 6:01 AM CDT 8:45 PM CDT
Nautical Twilight 5:27 AM CDT 9:19 PM CDT
Astronomical Twilight 4:50 AM CDT 9:55 PM CDT
Moon 3:57 PM CDT (8/9) 1:27 AM CDT (8/9)
Length of Visible Light 14h 43m
Length of Day
13h 47m
Waxing Gibbous, 70% of the Moon is Illuminated
Aug 9
Waxing Gibbous
Aug 15
Full
Aug 23
Last Quarter
Aug 30
New
Sep 5
First Quarter

Hourly Weather History & Observations

Time (CDT) Temp. Heat Index Dew Point Humidity Pressure Visibility Wind Dir Wind Speed Gust Speed Precip Events Conditions
12:29 AM 72.0 °F - 71.1 °F 97% 29.97 in 1.5 mi Calm Calm - N/A   Clear
12:34 AM 71.1 °F - 71.1 °F 100% 29.97 in 0.5 mi Calm Calm - N/A Fog Fog
12:44 AM 71.1 °F - 70.0 °F 96% 29.97 in 1.0 mi Calm Calm - N/A   Clear
12:53 AM 70.0 °F - 70.0 °F 100% 29.95 in 1.0 mi Calm Calm - N/A   Clear
1:13 AM 70.0 °F - 69.1 °F 97% 29.97 in 0.8 mi Calm Calm - N/A   Clear
1:20 AM 71.1 °F - 70.0 °F 96% 29.97 in 2.0 mi Calm Calm - N/A   Clear
1:27 AM 71.1 °F - 70.0 °F 96% 29.97 in 0.8 mi Calm Calm - N/A   Clear
1:36 AM 70.0 °F - 70.0 °F 100% 29.97 in 0.5 mi Calm Calm - N/A Fog Fog
1:51 AM 69.8 °F - 69.8 °F 100% 29.96 in 0.5 mi Calm Calm - N/A Fog Fog
1:53 AM 70.0 °F - 70.0 °F 100% 29.94 in 0.5 mi Calm Calm - N/A Fog Fog
2:15 AM 70.0 °F - 69.1 °F 97% 29.95 in 1.0 mi Calm Calm - N/A   Mist
2:20 AM 70.0 °F - 69.1 °F 97% 29.95 in 2.5 mi Calm Calm - N/A   Scattered Clouds
2:27 AM 70.0 °F - 70.0 °F 100% 29.94 in 5.0 mi Calm Calm - N/A   Partly Cloudy
2:32 AM 70.0 °F - 69.1 °F 97% 29.94 in 1.8 mi Calm Calm - N/A   Clear
2:53 AM 70.0 °F - 70.0 °F 100% 29.91 in 1.8 mi Calm Calm - N/A   Clear
2:59 AM 70.0 °F - 70.0 °F 100% 29.94 in 1.0 mi Calm Calm - N/A   Mist
3:03 AM 69.1 °F - 69.1 °F 100% 29.94 in 0.5 mi Calm Calm - N/A Fog Fog
3:11 AM 69.1 °F - 69.1 °F 100% 29.94 in 0.8 mi Calm Calm - N/A   Clear
3:16 AM 70.0 °F - 69.1 °F 97% 29.95 in 2.5 mi Calm Calm - N/A   Clear
3:24 AM 69.1 °F - 69.1 °F 100% 29.95 in 0.8 mi Calm Calm - N/A   Clear
3:26 AM 70.0 °F - 69.1 °F 97% 29.95 in 0.5 mi Calm Calm - N/A Fog Fog
3:53 AM 68.0 °F - 68.0 °F 100% 29.92 in 0.2 mi Calm Calm - N/A Fog Fog
4:06 AM 68.0 °F - 68.0 °F 100% 29.94 in 1.0 mi Calm Calm - N/A   Mist
4:12 AM 69.1 °F - 68.0 °F 96% 29.94 in 0.5 mi Calm Calm - N/A Fog Fog
4:23 AM 68.0 °F - 68.0 °F 100% 29.95 in 1.0 mi Calm Calm - N/A   Mist
4:27 AM 69.1 °F - 68.0 °F 96% 29.95 in 2.0 mi Calm Calm - N/A   Scattered Clouds
4:45 AM 69.1 °F - 69.1 °F 100% 29.95 in 0.8 mi Calm Calm - N/A   Clear
4:53 AM 68.0 °F - 66.9 °F 96% 29.92 in 0.8 mi NNE 3.5 mph - N/A   Clear
5:06 AM 69.1 °F - 69.1 °F 100% 29.95 in 2.0 mi ENE 3.5 mph - N/A   Clear
5:08 AM 69.1 °F - 69.1 °F 100% 29.95 in 3.0 mi ENE 3.5 mph - N/A   Partly Cloudy
5:24 AM 69.1 °F - 69.1 °F 100% 29.95 in 2.0 mi Calm Calm - N/A   Scattered Clouds
5:27 AM 69.1 °F - 69.1 °F 100% 29.96 in 1.8 mi Calm Calm - N/A   Mostly Cloudy
5:40 AM 69.1 °F - 68.0 °F 96% 29.96 in 0.8 mi Calm Calm - N/A   Mist
5:53 AM 66.9 °F - 66.9 °F 100% 29.94 in 3.0 mi Calm Calm - N/A Fog Patches of Fog
6:22 AM 68.0 °F - 68.0 °F 100% 29.97 in 0.8 mi Variable 3.5 mph - N/A Fog Patches of Fog
6:36 AM 69.1 °F - 68.0 °F 96% 29.97 in 0.5 mi Variable 3.5 mph - N/A Fog Fog
6:53 AM 69.1 °F - 69.1 °F 100% 29.95 in 0.5 mi Variable 4.6 mph - N/A Fog Fog
7:53 AM 70.0 °F - 70.0 °F 100% 29.97 in 0.2 mi East 4.6 mph - N/A Fog Fog
8:34 AM 71.1 °F - 71.1 °F 100% 30.00 in 1.5 mi Variable 4.6 mph - N/A   Overcast
8:53 AM 72.0 °F - 71.1 °F 97% 29.98 in 2.0 mi Variable 4.6 mph - N/A   Overcast
9:29 AM 72.0 °F - 71.1 °F 97% 30.00 in 2.0 mi East 5.8 mph - N/A   Overcast
9:53 AM 72.0 °F - 71.1 °F 97% 29.98 in 8.0 mi Variable 4.6 mph - N/A   Overcast
10:53 AM 75.0 °F - 71.1 °F 87% 29.99 in 10.0 mi NE 4.6 mph - N/A   Mostly Cloudy
11:27 AM 77.0 °F - 72.0 °F 84% 30.02 in 10.0 mi Variable 4.6 mph - N/A   Scattered Clouds
11:53 AM 78.1 °F - 72.0 °F 81% 29.99 in 10.0 mi Variable 4.6 mph - N/A   Scattered Clouds
12:07 PM 79.0 °F - 72.0 °F 79% 30.02 in 10.0 mi Calm Calm - N/A   Mostly Cloudy
12:53 PM 79.0 °F - 73.0 °F 82% 29.97 in 10.0 mi SSE 4.6 mph - N/A   Mostly Cloudy
1:53 PM 82.0 °F 87.9 °F 73.9 °F 76% 29.95 in 10.0 mi Variable 3.5 mph - N/A   Mostly Cloudy
2:37 PM 82.0 °F 87.9 °F 73.9 °F 76% 29.97 in 10.0 mi Calm Calm - N/A   Mostly Cloudy
2:53 PM 82.9 °F 89.4 °F 73.9 °F 74% 29.94 in 10.0 mi Calm Calm - N/A   Mostly Cloudy
3:53 PM 84.0 °F 91.2 °F 73.9 °F 72% 29.93 in 10.0 mi Variable 3.5 mph - N/A   Mostly Cloudy
4:53 PM 86.0 °F 93.8 °F 73.9 °F 67% 29.91 in 10.0 mi Variable 4.6 mph - N/A   Mostly Cloudy
5:53 PM 86.0 °F 93.0 °F 73.0 °F 65% 29.90 in 10.0 mi Calm Calm - N/A   Scattered Clouds
6:53 PM 84.0 °F 90.2 °F 73.0 °F 69% 29.90 in 10.0 mi Calm Calm - N/A   Clear
7:53 PM 79.0 °F - 73.9 °F 84% 29.90 in 10.0 mi Variable 4.6 mph - N/A   Clear
8:53 PM 78.1 °F - 75.0 °F 90% 29.91 in 10.0 mi SW 4.6 mph - 0.00 in   Clear
9:53 PM 77.0 °F - 75.0 °F 94% 29.93 in 10.0 mi Calm Calm - N/A   Clear
10:53 PM 75.9 °F - 75.0 °F 97% 29.95 in 10.0 mi Calm Calm - N/A   Clear
11:53 PM 75.0 °F - 73.9 °F 96% 29.95 in 7.0 mi Calm Calm - N/A   Clear